Weather History for KHTS - February, 2014

Change the Weather History Date:

Wednesday, February 19, 2014

  Actual Average Record
Temperature  
Mean Temperature 51 °F 38 °F  
Max Temperature 61 °F 48 °F 76 °F (1939)
Min Temperature 41 °F 29 °F -3 °F (2015)
Degree Days  
Heating Degree Days 14 27  
Month to date heating degree days 611 547  
Since 1 July heating degree days 3522 3271  
Cooling Degree Days 0 0  
Month to date cooling degree days 0 0  
Year to date cooling degree days 0 0  
Growing Degree Days 2 (Base 50)    
Moisture  
Dew Point 36 °F    
Average Humidity 61    
Maximum Humidity 93    
Minimum Humidity 28    
Precipitation  
Precipitation 0.12 in 0.12 in 1.14 in (1914)
Month to date precipitation 3.98 2.04  
Year to date precipitation 6.28 5.01  
Snow  
Snow 0.00 in - - ()
Month to date snowfall 8.5  
Since 1 September snowfall 28.2  
Snow Depth 0.00 in    
Sea Level Pressure  
Sea Level Pressure 29.91 in    
Wind  
Wind Speed 9 mph (WSW)    
Max Wind Speed 22 mph    
Max Gust Speed 33 mph    
Visibility 10 miles    
Events Rain    
T = Trace of Precipitation, MM = Missing Value Source: NWS Daily Summary

Daily Weather History Graph

Daily Weather History Graph

Search for Another Location

Airport or City:

Trip Planner

Search our weather history database for the weather conditions in past years. The results will help you decide how hot, cold, wet, or windy it might be!

Date:

Astronomy

Feb. 19, 2014 Rise Set
Actual Time 7:15 AM EST 6:12 PM EST
Civil Twilight 6:48 AM EST 6:39 PM EST
Nautical Twilight 6:18 AM EST 7:10 PM EST
Astronomical Twilight 5:47 AM EST 7:41 PM EST
Moon 11:00 PM EST (2/19) 9:25 AM EST (2/19)
Length of Visible Light 11h 50m
Length of Day
10h 57m
Waning Gibbous, 80% of the Moon is Illuminated
Feb 19
Waning Gibbous
Feb 22
Last Quarter
Mar 1
New
Mar 8
First Quarter
Mar 16
Full

Hourly Weather History & Observations

Time (EST) Temp. Windchill Dew Point Humidity Pressure Visibility Wind Dir Wind Speed Gust Speed Precip Events Conditions
12:51 AM 46.0 °F 42.5 °F 27.0 °F 47% 29.87 in 10.0 mi South 6.9 mph - N/A   Mostly Cloudy
1:51 AM 50.0 °F - 26.1 °F 39% 29.81 in 10.0 mi South 8.1 mph - N/A   Scattered Clouds
2:51 AM 48.9 °F - 28.0 °F 44% 29.78 in 10.0 mi SSW 8.1 mph - N/A   Scattered Clouds
3:51 AM 48.0 °F - 37.0 °F 66% 29.76 in 9.0 mi SW 3.5 mph - 0.06 in Rain Light Rain
4:51 AM 46.9 °F - 39.9 °F 77% 29.77 in 10.0 mi SSW 8.1 mph - 0.01 in Rain Light Rain
5:31 AM 48.0 °F - 45.0 °F 89% 29.77 in 6.0 mi SSW 5.8 mph - 0.05 in Rain Light Rain
5:40 AM 48.0 °F - 45.0 °F 89% 29.77 in 10.0 mi SSW 6.9 mph - 0.05 in Rain Light Rain
5:51 AM 48.0 °F - 45.0 °F 89% 29.77 in 10.0 mi SSW 5.8 mph - 0.05 in   Mostly Cloudy
6:51 AM 48.0 °F - 46.0 °F 93% 29.77 in 9.0 mi SSW 8.1 mph - N/A   Clear
7:51 AM 48.9 °F - 46.9 °F 93% 29.78 in 7.0 mi SSW 6.9 mph - N/A   Scattered Clouds
8:51 AM 51.1 °F - 48.9 °F 92% 29.81 in 8.0 mi SW 8.1 mph - N/A   Mostly Cloudy
9:51 AM 55.9 °F - 50.0 °F 80% 29.83 in 10.0 mi WSW 10.4 mph 19.6 mph N/A   Scattered Clouds
10:00 AM 55.9 °F - 50.0 °F 80% 29.83 in 10.0 mi WSW 12.7 mph - N/A   Mostly Cloudy
10:29 AM 57.0 °F - 48.0 °F 72% 29.84 in 10.0 mi WSW 13.8 mph 24.2 mph N/A   Mostly Cloudy
10:51 AM 57.0 °F - 46.9 °F 69% 29.85 in 10.0 mi WSW 12.7 mph 26.5 mph N/A   Mostly Cloudy
11:51 AM 59.0 °F - 43.0 °F 55% 29.89 in 10.0 mi West 16.1 mph - N/A   Mostly Cloudy
12:51 PM 59.0 °F - 33.1 °F 38% 29.92 in 10.0 mi West 18.4 mph 32.2 mph N/A   Partly Cloudy
1:51 PM 60.1 °F - 28.9 °F 31% 29.93 in 10.0 mi West 13.8 mph 28.8 mph N/A   Clear
2:51 PM 59.0 °F - 28.0 °F 31% 29.95 in 10.0 mi West 13.8 mph 26.5 mph N/A   Clear
3:51 PM 59.0 °F - 27.0 °F 29% 29.98 in 10.0 mi West 10.4 mph 23.0 mph N/A   Clear
4:51 PM 57.9 °F - 28.0 °F 32% 30.01 in 10.0 mi WNW 9.2 mph - N/A   Clear
5:51 PM 54.0 °F - 28.9 °F 38% 30.06 in 10.0 mi NNW 9.2 mph - N/A   Clear
6:51 PM 50.0 °F - 27.0 °F 41% 30.09 in 10.0 mi North 5.8 mph - N/A   Clear
7:51 PM 48.0 °F - 26.1 °F 42% 30.10 in 10.0 mi NNE 3.5 mph - N/A   Clear
8:51 PM 46.9 °F - 27.0 °F 46% 30.10 in 10.0 mi ENE 5.8 mph - N/A   Clear
9:51 PM 43.0 °F 38.2 °F 28.9 °F 58% 30.09 in 10.0 mi ENE 8.1 mph - N/A   Clear
10:51 PM 43.0 °F 39.5 °F 28.0 °F 56% 30.09 in 10.0 mi East 5.8 mph - N/A   Clear
11:51 PM 43.0 °F 40.3 °F 28.0 °F 56% 30.09 in 10.0 mi East 4.6 mph - N/A   Clear